Home   Weather   Casper   Past weeks

Flag for USA Past Weather in Casper, Wyoming, USA — Yesterday and Last 2 Weeks

Now
49 °F

Clear.


Feels Like: 45 °F
Forecast: 48 / 75 °F
Wind: 10 mph from Southwest

Location: Natrona County International Airport

Current Time: Oct 1, 2016 at 7:57:20 AM

Latest Report: Oct 1, 2016 at 6:53 AM


Visibility: 10 mi

Pressure: 30.01 "Hg (24.82 "Hg at 1569m altitude)

Humidity: 74%

Dew Point: 41 °F

Location of CasperLocation

Past Weather in Casper — Graph

°F

Casper Temperature Yesterday

Maximum temperature yesterday: 77 °F (at 2:53 PM)
Minimum temperature yesterday: 48 °F (at 11:53 PM)
Average temperature yesterday: 63 °F

High & Low Weather Summary for the Past Weeks

 TemperatureHumidityPressure
High87 °F (Sep 20, 2:53 PM)100% (Sep 22, 1:53 AM)30.43 "Hg (Sep 22, 1:53 AM)
Low33 °F (Sep 26, 6:53 AM)10% (Sep 20, 1:53 PM)29.62 "Hg (Sep 23, 2:53 AM)
Average58 °F59%30.02 "Hg
* Reported Sep 16 5:53 AM — Oct 1 5:53 AM, Casper, Weather by CustomWeather, © 2016

Note: Actual official high and low records may vary slightly from our data, if they occured in-between our weather recording intervals... More about our weather records

Advertising

Casper Weather History for the Previous 24 Hours

Scroll right to see more
 ConditionsComfort  
Time TempWeatherWind HumidityBarometerVisibility
5:53 AM
Sat, Oct 1
47 °FClear.8 mph80%29.98 "Hg10 mi
4:53 AM45 °FClear.5 mph82%29.98 "Hg10 mi
3:53 AM42 °FClear.5 mph85%29.99 "Hg10 mi
2:53 AM46 °FClear.6 mph79%29.98 "Hg10 mi
1:53 AM49 °FClear.6 mph71%29.99 "Hg10 mi
12:53 AM50 °FClear.9 mph68%30.00 "Hg10 mi
11:53 PM
Fri, Sep 30
48 °FClear.6 mph74%30.00 "Hg10 mi
10:53 PM49 °FClear.No wind71%30.01 "Hg10 mi
9:53 PM49 °FClear.5 mph74%30.01 "Hg10 mi
8:53 PM52 °FClear.9 mph69%30.01 "Hg10 mi
7:53 PM55 °FClear.9 mph59%30.00 "Hg10 mi
6:53 PM62 °FClear.6 mph46%29.97 "Hg10 mi
5:53 PM73 °FSunny.7 mph32%29.94 "Hg10 mi
4:53 PM75 °FSunny.10 mph28%29.93 "Hg10 mi
3:53 PM76 °FSunny.13 mph29%29.93 "Hg10 mi
2:53 PM77 °FBroken clouds.13 mph28%29.93 "Hg10 mi
1:53 PM75 °FSunny.13 mph30%29.95 "Hg10 mi
12:53 PM70 °FScattered clouds.10 mph42%30.00 "Hg10 mi
11:53 AM71 °FSunny.20 mph44%30.02 "Hg10 mi
10:53 AM68 °FSunny.22 mph51%30.04 "Hg10 mi
9:53 AM65 °FSunny.21 mph59%30.06 "Hg10 mi
8:53 AM61 °FSunny.7 mph67%30.06 "Hg10 mi
7:53 AM58 °FSunny.10 mph72%30.08 "Hg10 mi
Weather by CustomWeather, © 2016

See weather overviewHow to use our weather pages